GW4073 Weather Reports


Display with metric or nautical units.
time (UTC)temp
F
wind
direction
speed
MPH
gust
MPH
rain 1hr
in
rain 24hr
in
rain mn
in
humidity
%
barometer
mb
20260831213459 72 12 3.0 6.0 0.00 0.08 0.08 61 1016.8
20260831212958 73 58 3.0 9.0 0.00 0.08 0.08 59 1016.8
20260831212454 73 94 2.0 5.0 0.00 0.08 0.08 57 1016.9
20260831211949 72 8 1.0 3.0 0.02 0.08 0.08 63 1016.9
20260831211444 72 3 4.0 6.0 0.02 0.08 0.08 61 1017.1
20260831210943 72 88 2.0 8.0 0.00 0.07 0.07 57 1017.0
20260831210439 72 64 3.0 10.0 0.00 0.07 0.07 56 1017.2
20260831205934 72 166 3.0 5.0 0.00 0.07 0.07 55 1017.1
20260831205430 72 210 4.0 18.0 0.00 0.07 0.07 54 1017.1
20260831204925 72 199 5.0 9.0 0.00 0.07 0.07 54 1017.2
20260831204423 73 54 11.0 18.0 0.00 0.07 0.07 54 1017.1
20260831203918 72 55 12.0 15.0 0.00 0.07 0.07 54 1017.0
20260831203412 71 102 4.0 16.0 0.00 0.07 0.07 56 1017.1
20260831202910 71 10 4.0 11.0 0.00 0.07 0.07 60 1017.0
20260831202405 70 74 5.0 15.0 0.00 0.07 0.07 63 1017.2
20260831201900 70 77 6.0 17.0 0.00 0.07 0.07 63 1017.0
20260831201358 70 72 10.0 18.0 0.00 0.07 0.07 63 1017.1
20260831200855 70 56 5.0 18.0 0.00 0.07 0.07 63 1017.2
20260831200349 71 13 2.0 11.0 0.00 0.07 0.07 62 1017.4
20260831195844 71 56 8.0 15.0 0.00 0.07 0.07 62 1016.9
20260831195340 71 60 10.0 19.0 0.00 0.07 0.07 61 1017.2
20260831194835 71 69 8.0 14.0 0.00 0.07 0.07 60 1017.0
20260831194330 71 357 2.0 20.0 0.00 0.07 0.07 59 1017.1
20260831193829 71 84 1.0 5.0 0.00 0.07 0.07 61 1017.0
20260831193325 71 38 13.0 16.0 0.00 0.07 0.07 60 1017.1
20260831192820 71 55 7.0 14.0 0.00 0.07 0.07 60 1017.4
20260831192315 71 105 9.0 15.0 0.00 0.07 0.07 60 1017.2
20260831191811 72 97 5.0 15.0 0.00 0.07 0.07 60 1016.9
20260831191307 72 73 7.0 18.0 0.00 0.07 0.07 59 1016.5
20260831190802 72 24 7.0 14.0 0.00 0.07 0.07 58 1017.2
20260831190302 72 128 3.0 12.0 0.00 0.07 0.07 63 1017.1
20260831185756 72 49 6.0 15.0 0.00 0.07 0.07 60 1017.9
20260831185252 72 38 12.0 13.0 0.00 0.07 0.07 58 1017.6
20260831184750 72 105 5.0 8.0 0.00 0.07 0.07 61 1018.1
20260831184246 72 64 5.0 9.0 0.00 0.07 0.07 62 1017.9
20260831183742 72 100 2.0 6.0 0.00 0.07 0.07 65 1017.8
20260831183236 72 131 3.0 15.0 0.00 0.07 0.07 62 1017.7
20260831182735 71 100 11.0 19.0 0.00 0.07 0.07 62 1018.1
20260831182230 71 102 6.0 17.0 0.00 0.07 0.07 65 1017.9
20260831181730 70 56 6.0 9.0 0.00 0.07 0.07 70 1017.9
20260831181225 70 115 2.0 4.0 0.00 0.07 0.07 73 1017.6
20260831180720 69 89 0.0 5.0 0.00 0.07 0.07 72 1017.7
20260831180215 68 41 8.0 12.0 0.07 0.07 0.07 73 1017.8
20260831175714 66 49 4.0 6.0 0.42 0.07 0.07 80 1017.7
20260831175211 69 357 3.0 3.0 0.26 0.04 0.04 76 1017.9
20260831174711 69 70 4.0 6.0 0.02 0.00 0.00 70 1017.9
20260831174207 70 58 2.0 7.0 0.00 0.00 0.00 66 1017.8
20260831173705 70 84 2.0 10.0 0.00 0.00 0.00 64 1017.6
20260831173201 72 14 2.0 3.0 0.00 0.00 0.00 62 1017.8
20260831172700 71 73 4.0 11.0 0.00 0.00 0.00 61 1017.9
20260831172156 72 89 4.0 6.0 0.00 0.00 0.00 59 1017.6
20260831171650 73 25 7.0 9.0 0.00 0.00 0.00 59 1017.7
20260831171148 73 52 0.0 2.0 0.00 0.00 0.00 58 1017.4
20260831170644 73 70 1.0 8.0 0.00 0.00 0.00 56 1017.6
20260831170141 73 7 3.0 6.0 0.00 0.00 0.00 57 1017.9
20260831165636 72 15 2.0 5.0 0.00 0.00 0.00 59 1017.6
20260831165133 71 58 2.0 6.0 0.00 0.00 0.00 60 1017.9
20260831164628 72 16 0.0 3.0 0.00 0.00 0.00 59 1017.9
20260831164124 72 269 0.0 3.0 0.00 0.00 0.00 60 1018.1
20260831163619 71 43 3.0 4.0 0.00 0.00 0.00 56 1017.8
20260831163114 71 348 3.0 5.0 0.00 0.00 0.00 57 1017.9
20260831162614 71 92 5.0 7.0 0.00 0.00 0.00 56 1017.9
20260831162111 71 58 4.0 9.0 0.00 0.00 0.00 55 1017.8
20260831161608 71 51 5.0 5.0 0.00 0.00 0.00 57 1017.7
20260831161104 72 24 4.0 5.0 0.00 0.00 0.00 56 1018.1
20260831160603 73 27 2.0 3.0 0.00 0.00 0.00 56 1017.8
20260831160059 72 323 2.0 4.0 0.00 0.00 0.00 57 1017.9
20260831155559 73 322 0.0 2.0 0.00 0.00 0.00 57 1017.8
20260831155054 73 274 2.0 2.0 0.00 0.00 0.00 55 1017.8
20260831154550 73 141 1.0 6.0 0.00 0.00 0.00 55 1017.9
20260831154044 71 18 5.0 8.0 0.00 0.00 0.00 58 1017.8
20260831153538 70 35 5.0 5.0 0.00 0.00 0.00 60 1018.1
20260831153036 69 34 2.0 6.0 0.00 0.00 0.00 62 1017.7
20260831152530 68 33 3.0 6.0 0.00 0.00 0.00 63 1017.7
20260831152026 68 34 3.0 5.0 0.00 0.00 0.00 62 1017.6
20260831151525 67 12 2.0 5.0 0.00 0.00 0.00 63 1017.7
20260831151025 67 44 7.0 8.0 0.00 0.00 0.00 63 1017.8
20260831150515 67 54 5.0 9.0 0.00 0.00 0.00 63 1017.6
20260831150011 68 35 3.0 5.0 0.00 0.00 0.00 62 1017.9
20260831145505 67 71 1.0 5.0 0.00 0.00 0.00 63 1017.7
20260831145001 68 20 4.0 5.0 0.00 0.00 0.00 62 1017.6
20260831144456 67 330 2.0 6.0 0.00 0.00 0.00 62 1017.8
20260831143951 65 9 2.0 6.0 0.00 0.00 0.00 65 1017.7
20260831143446 65 26 4.0 9.0 0.00 0.00 0.00 65 1017.9
20260831142941 64 23 5.0 7.0 0.00 0.00 0.00 65 1017.7
20260831142438 64 17 6.0 10.0 0.00 0.00 0.00 65 1017.6
20260831141932 64 20 4.0 10.0 0.00 0.00 0.00 64 1017.4
20260831141426 63 47 6.0 9.0 0.00 0.00 0.00 64 1017.6
20260831140921 63 11 4.0 11.0 0.00 0.00 0.00 65 1017.6
20260831140415 62 57 5.0 10.0 0.00 0.00 0.00 64 1017.2
20260831135909 62 67 4.0 9.0 0.00 0.00 0.00 65 1017.0
20260831135409 61 43 5.0 8.0 0.00 0.00 0.00 66 1017.1
20260831134903 61 64 3.0 9.0 0.00 0.00 0.00 66 1017.0
20260831134359 61 65 5.0 9.0 0.00 0.00 0.00 66 1017.0
20260831133859 61 40 5.0 8.0 0.00 0.00 0.00 66 1017.4
20260831133359 60 62 3.0 4.0 0.00 0.00 0.00 67 1017.0
20260831132855 58 64 6.0 6.0 0.00 0.00 0.00 69 1016.9
20260831132345 58 131 2.0 2.0 0.00 0.00 0.00 69 1016.5
20260831131844 58 323 2.0 3.0 0.00 0.00 0.00 69 1016.6
20260831131340 60 271 2.0 2.0 0.00 0.00 0.00 66 1016.6
20260831130835 61 353 2.0 3.0 0.00 0.00 0.00 63 1016.5
20260831130331 61 15 3.0 10.0 0.00 0.00 0.00 62 1016.1
20260831125830 62 33 3.0 8.0 0.00 0.00 0.00 62 1016.3
20260831125325 62 32 4.0 11.0 0.00 0.00 0.00 62 1015.9
20260831124825 61 23 9.0 10.0 0.00 0.00 0.00 62 1015.8
20260831124322 60 17 5.0 9.0 0.00 0.00 0.00 63 1015.7
20260831123821 61 34 4.0 7.0 0.00 0.00 0.00 63 1015.9
20260831123320 61 33 4.0 9.0 0.00 0.00 0.00 63 1015.7
20260831122815 60 71 4.0 8.0 0.00 0.00 0.00 63 1015.6
20260831122311 60 37 6.0 8.0 0.00 0.00 0.00 63 1015.8
20260831121811 60 41 5.0 12.0 0.00 0.00 0.00 63 1015.8
20260831121307 60 13 5.0 8.0 0.00 0.00 0.00 63 1015.5
20260831120802 60 47 4.0 7.0 0.00 0.00 0.00 63 1015.7
20260831120256 60 44 6.0 11.0 0.00 0.00 0.00 64 1015.5
20260831115752 60 57 6.0 11.0 0.00 0.00 0.00 63 1015.5
20260831115248 60 32 5.0 12.0 0.00 0.00 0.00 62 1015.6
20260831114747 60 35 8.0 13.0 0.00 0.00 0.00 62 1015.7
20260831114246 61 36 6.0 10.0 0.00 0.00 0.00 62 1015.7
20260831113742 61 44 4.0 6.0 0.00 0.00 0.00 61 1015.7
20260831113237 61 63 5.0 9.0 0.00 0.00 0.00 61 1015.6
20260831112736 61 40 6.0 8.0 0.00 0.00 0.00 61 1015.7
20260831112232 61 31 6.0 9.0 0.00 0.00 0.00 61 1015.7
20260831111727 61 40 6.0 10.0 0.00 0.00 0.00 60 1015.5
20260831111223 61 38 5.0 9.0 0.00 0.00 0.00 60 1015.7
20260831110719 61 61 5.0 6.0 0.00 0.00 0.00 60 1015.7
20260831110214 62 71 5.0 6.0 0.00 0.00 0.00 60 1015.6
20260831105712 62 62 6.0 9.0 0.00 0.00 0.00 59 1015.8
20260831105208 61 29 7.0 10.0 0.00 0.00 0.00 60 1015.9
20260831104703 61 43 5.0 6.0 0.00 0.00 0.00 61 1015.8
20260831104200 61 69 4.0 6.0 0.00 0.00 0.00 61 1015.8
20260831103659 61 67 4.0 8.0 0.00 0.00 0.00 60 1015.8
20260831103155 62 51 7.0 9.0 0.00 0.00 0.00 59 1015.9
20260831102654 62 35 4.0 5.0 0.00 0.00 0.00 59 1015.9
20260831102149 61 40 6.0 7.0 0.00 0.00 0.00 59 1015.8
20260831101645 61 22 5.0 7.0 0.00 0.00 0.00 60 1015.8
20260831101141 61 22 8.0 11.0 0.00 0.00 0.00 60 1015.7
20260831100636 61 49 8.0 11.0 0.00 0.00 0.00 59 1015.8
20260831100132 61 26 4.0 11.0 0.00 0.00 0.00 60 1015.5
20260831095630 61 47 7.0 11.0 0.00 0.00 0.00 59 1015.6
20260831095125 61 43 6.0 11.0 0.00 0.00 0.00 59 1015.8
20260831094620 61 39 8.0 12.0 0.00 0.00 0.00 59 1015.8
20260831094117 61 66 9.0 11.0 0.00 0.00 0.00 59 1015.8
20260831093612 61 18 5.0 8.0 0.00 0.00 0.00 59 1015.7
20260831093108 61 36 4.0 10.0 0.00 0.00 0.00 60 1015.9
20260831092604 60 13 4.0 6.0 0.00 0.00 0.00 61 1015.6
20260831092059 61 47 5.0 8.0 0.00 0.00 0.00 60 1015.7
20260831091559 61 21 3.0 9.0 0.00 0.00 0.00 59 1015.5
20260831091054 61 47 3.0 6.0 0.00 0.00 0.00 59 1015.5
20260831090549 61 46 4.0 7.0 0.00 0.00 0.00 59 1015.6
20260831090046 61 35 3.0 11.0 0.00 0.00 0.00 60 1015.6
20260831085541 60 62 6.0 9.0 0.00 0.00 0.00 61 1015.5
20260831085036 61 60 4.0 10.0 0.00 0.00 0.00 60 1015.4
20260831084532 62 41 5.0 10.0 0.00 0.00 0.00 58 1015.2
20260831084028 62 50 6.0 15.0 0.00 0.00 0.00 59 1015.7
20260831083524 62 32 6.0 10.0 0.00 0.00 0.00 58 1015.5
20260831083018 62 37 4.0 11.0 0.00 0.00 0.00 58 1015.5
20260831082517 61 16 3.0 9.0 0.00 0.00 0.00 59 1015.6
20260831082012 62 42 6.0 10.0 0.00 0.00 0.00 57 1015.7
20260831081508 62 28 5.0 11.0 0.00 0.00 0.00 56 1015.5
20260831081004 61 17 3.0 6.0 0.00 0.00 0.00 60 1015.7
20260831080504 61 341 2.0 7.0 0.00 0.00 0.00 59 1015.5
20260831075959 62 36 5.0 9.0 0.00 0.00 0.00 57 1015.7
20260831075455 62 38 4.0 8.0 0.00 0.00 0.00 57 1015.4
20260831074951 62 51 4.0 5.0 0.00 0.00 0.00 58 1015.4
20260831074450 62 41 5.0 6.0 0.00 0.00 0.00 58 1015.6
20260831073944 62 37 7.0 8.0 0.00 0.00 0.00 58 1015.2
20260831073439 62 47 4.0 9.0 0.00 0.00 0.00 58 1015.5
20260831072938 62 42 4.0 7.0 0.00 0.00 0.00 57 1015.5
20260831072434 63 52 7.0 9.0 0.00 0.00 0.00 57 1015.5
20260831071931 63 40 6.0 12.0 0.00 0.00 0.00 56 1015.2
20260831071430 63 53 11.0 14.0 0.00 0.00 0.00 56 1015.5
20260831070929 64 65 6.0 13.0 0.00 0.00 0.00 55 1015.6
20260831070424 63 50 8.0 9.0 0.00 0.00 0.00 56 1015.4
20260831065923 63 20 4.0 5.0 0.00 0.00 0.00 56 1015.6
20260831065420 64 30 3.0 6.0 0.00 0.00 0.00 55 1015.7
20260831064915 63 13 4.0 8.0 0.00 0.00 0.00 56 1015.5
20260831064410 64 42 4.0 7.0 0.00 0.00 0.00 55 1015.2
20260831063906 64 41 7.0 10.0 0.00 0.00 0.00 55 1015.4
20260831063401 63 33 6.0 8.0 0.00 0.00 0.00 56 1015.1
20260831062856 63 39 3.0 7.0 0.00 0.00 0.00 57 1015.1
20260831062351 63 307 3.0 8.0 0.00 0.00 0.00 57 1015.2
20260831061849 64 31 3.0 7.0 0.00 0.00 0.00 56 1015.4
20260831061343 64 6 4.0 8.0 0.00 0.00 0.00 56 1015.4
20260831060840 64 41 4.0 10.0 0.00 0.00 0.00 56 1015.6
20260831060339 64 50 7.0 10.0 0.00 0.00 0.00 55 1015.4
20260831055839 64 83 5.0 10.0 0.00 0.01 0.01 55 1015.2
20260831055334 64 1 5.0 10.0 0.00 0.01 0.01 56 1015.7
20260831054829 64 43 5.0 7.0 0.00 0.01 0.01 56 1015.4
20260831054325 64 92 4.0 11.0 0.00 0.01 0.01 55 1015.6
20260831053823 65 62 3.0 9.0 0.00 0.01 0.01 54 1015.8
20260831053322 65 43 6.0 11.0 0.00 0.01 0.01 54 1015.6
20260831052817 65 48 5.0 9.0 0.00 0.01 0.01 54 1015.8
20260831052316 65 11 4.0 8.0 0.00 0.01 0.01 54 1015.6
20260831051814 65 41 6.0 14.0 0.00 0.01 0.01 55 1015.7
20260831051313 65 41 6.0 7.0 0.00 0.01 0.01 54 1015.7
20260831050808 66 39 4.0 8.0 0.00 0.01 0.01 54 1015.4
20260831050307 66 27 3.0 6.0 0.00 0.01 0.01 53 1015.4
20260831045802 66 44 4.0 6.0 0.00 0.01 0.01 53 1015.6
20260831045256 66 16 3.0 6.0 0.00 0.01 0.01 53 1015.5
20260831044751 66 29 2.0 7.0 0.00 0.01 0.01 53 1015.5
20260831044246 66 24 1.0 6.0 0.00 0.01 0.01 53 1015.6
20260831043742 66 39 6.0 7.0 0.00 0.01 0.01 52 1015.6
20260831043237 67 0 3.0 5.0 0.00 0.01 0.01 52 1015.2
20260831042736 67 36 2.0 4.0 0.00 0.01 0.01 53 1015.5
20260831042231 67 36 4.0 7.0 0.00 0.01 0.01 52 1015.4
20260831041726 67 87 4.0 6.0 0.00 0.01 0.01 53 1015.5
20260831041220 68 29 4.0 11.0 0.00 0.01 0.01 52 1015.6
20260831040715 67 30 0.0 4.0 0.00 0.01 0.01 52 1015.5
20260831040214 67 94 2.0 5.0 0.00 0.01 0.01 52 1015.2
20260831035713 68 20 2.0 4.0 0.00 0.01 0.01 51 1015.4
20260831035213 68 4 4.0 8.0 0.00 0.01 0.01 52 1015.2
20260831034712 68 59 2.0 6.0 0.00 0.01 0.01 51 1015.1
20260831034208 68 44 6.0 9.0 0.00 0.01 0.01 50 1015.0
20260831033703 68 31 3.0 4.0 0.00 0.01 0.01 51 1014.8
20260831033202 68 27 4.0 5.0 0.00 0.01 0.01 51 1014.9
20260831032657 68 27 4.0 6.0 0.00 0.01 0.01 51 1014.9
20260831032153 68 44 4.0 7.0 0.00 0.01 0.01 50 1014.9
20260831031653 68 46 3.0 5.0 0.00 0.01 0.01 51 1014.5
20260831031153 67 28 2.0 3.0 0.00 0.01 0.01 52 1014.8
20260831030652 68 357 1.0 3.0 0.00 0.01 0.01 52 1014.9
20260831030151 67 40 2.0 3.0 0.00 0.01 0.01 54 1014.5
20260831025649 68 334 2.0 3.0 0.00 0.01 0.01 54 1014.5
20260831025144 68 42 2.0 2.0 0.00 0.01 0.01 54 1014.7
20260831024641 68 29 1.0 2.0 0.00 0.01 0.01 53 1014.7
20260831024139 69 22 2.0 2.0 0.00 0.01 0.01 52 1014.7
20260831023638 69 38 2.0 2.0 0.00 0.01 0.01 51 1014.4
20260831023137 70 26 2.0 2.0 0.00 0.01 0.01 50 1014.3
20260831022632 70 353 2.0 2.0 0.00 0.01 0.01 48 1014.3
20260831022127 71 3 2.0 2.0 0.00 0.01 0.01 49 1014.3
20260831021626 72 12 2.0 2.0 0.00 0.01 0.01 45 1014.1
20260831021122 73 59 0.0 1.0 0.00 0.01 0.01 45 1014.1
20260831020618 73 344 2.0 2.0 0.00 0.01 0.01 43 1014.2
20260831020113 74 5 1.0 1.0 0.00 0.01 0.01 43 1013.9
20260831015609 75 300 1.0 2.0 0.00 0.01 0.01 41 1013.9
20260831015108 75 326 2.0 3.0 0.00 0.01 0.01 41 1013.8
20260831014603 75 311 1.0 3.0 0.00 0.01 0.01 41 1013.7
20260831014058 76 5 1.0 4.0 0.00 0.01 0.01 41 1013.7
20260831013555 77 285 0.0 4.0 0.00 0.01 0.01 40 1013.7
20260831013054 77 301 0.0 5.0 0.00 0.01 0.01 40 1013.8
20260831012549 77 321 2.0 3.0 0.00 0.01 0.01 39 1013.6
20260831012044 78 281 1.0 2.0 0.00 0.01 0.01 39 1013.7
20260831011543 79 262 2.0 5.0 0.00 0.01 0.01 37 1013.8
20260831011038 78 280 2.0 4.0 0.00 0.01 0.01 38 1013.7
20260831010534 79 257 2.0 3.0 0.00 0.01 0.01 39 1013.9
20260831010030 79 294 4.0 4.0 0.00 0.01 0.01 38 1013.8
20260831005525 79 244 1.0 3.0 0.00 0.01 0.01 38 1014.1
20260831005024 80 260 2.0 8.0 0.00 0.01 0.01 39 1013.7
20260831004520 80 320 2.0 5.0 0.00 0.01 0.01 38 1013.7
20260831004016 80 285 1.0 5.0 0.00 0.01 0.01 39 1013.8
20260831003512 80 272 2.0 6.0 0.00 0.01 0.01 37 1013.7
20260831003007 81 300 2.0 5.0 0.00 0.01 0.01 37 1013.9
20260831002506 81 280 0.0 5.0 0.00 0.01 0.01 37 1014.1
20260831002001 82 287 2.0 4.0 0.00 0.01 0.01 36 1013.7
20260831001456 81 289 2.0 4.0 0.00 0.01 0.01 36 1013.7
20260831000953 82 258 4.0 5.0 0.00 0.01 0.01 35 1013.9
20260831000449 82 331 2.0 6.0 0.00 0.01 0.01 35 1013.8
20260830235946 82 294 4.0 6.0 0.00 0.01 0.01 36 1014.1
20260830235442 83 231 3.0 3.0 0.00 0.01 0.01 37 1013.8
20260830234937 83 288 2.0 4.0 0.00 0.01 0.01 35 1014.1
20260830234432 83 291 4.0 5.0 0.00 0.01 0.01 35 1014.1
20260830233928 84 294 4.0 6.0 0.00 0.01 0.01 34 1013.7
20260830233423 84 227 2.0 3.0 0.00 0.01 0.01 34 1013.9
20260830232919 84 296 3.0 8.0 0.00 0.01 0.01 34 1013.9
20260830232415 84 311 2.0 4.0 0.00 0.01 0.01 34 1013.9
20260830231912 83 290 4.0 6.0 0.00 0.01 0.01 35 1013.8
20260830231406 83 267 3.0 8.0 0.00 0.01 0.01 34 1014.1
20260830230905 83 224 7.0 10.0 0.00 0.01 0.01 34 1013.7
20260830230401 84 302 6.0 7.0 0.00 0.01 0.01 35 1013.7
20260830225900 84 258 4.0 6.0 0.00 0.01 0.01 33 1013.8
20260830225355 84 287 3.0 12.0 0.00 0.01 0.01 35 1013.7
20260830224850 84 296 5.0 14.0 0.00 0.01 0.01 34 1013.6
20260830224344 83 326 2.0 6.0 0.00 0.01 0.01 35 1013.6
20260830223841 83 293 5.0 5.0 0.00 0.01 0.01 36 1013.9
20260830223337 82 238 9.0 9.0 0.00 0.01 0.01 35 1013.8
20260830222836 83 297 7.0 9.0 0.00 0.01 0.01 36 1013.6
20260830222332 82 299 2.0 3.0 0.00 0.01 0.01 40 1013.9
20260830221827 81 286 2.0 3.0 0.00 0.01 0.01 41 1014.2
20260830221324 82 188 5.0 14.0 0.00 0.01 0.01 35 1014.1
20260830220824 82 224 3.0 6.0 0.00 0.01 0.01 37 1014.2
20260830220323 81 206 2.0 11.0 0.00 0.01 0.01 36 1014.2
20260830215821 81 288 9.0 11.0 0.00 0.01 0.01 36 1014.1
20260830215316 81 197 4.0 6.0 0.00 0.01 0.01 37 1014.3
20260830214812 80 175 3.0 8.0 0.00 0.01 0.01 39 1014.1
20260830214307 80 247 4.0 6.0 0.00 0.01 0.01 41 1014.4
20260830213806 80 234 4.0 8.0 0.02 0.01 0.01 43 1014.3